Simultaneous Nadir Overpasses (SNOs) Predictions

Prediction of SNOs between NOAA-21 and LANDSAT-8 Satellite Orbit:

Table of predicted SNOs for the next 14.0 days since TLE Epoch: 6/8/2024
Index Date (NOAA-21) Time (NOAA-21) Lat,Lon (NOAA-21) SZA (NOAA-21 ) Date (LANDSAT-8) Time (LANDSAT-8) Lat,Lon (LANDSAT-8) SZA (LANDSAT-8 ) Distance(km) Time Diff (sec)
1 06/08/2024 06:19:12 -70.23, -98.89 132.72 06/08/2024 06:20:23 -70.21, -98.69 132.75 7.89 71
2 06/08/2024 07:09:55 70.04, 68.71 47.08 06/08/2024 07:09:51 70.05, 68.73 47.09 1.55 4
3 06/08/2024 08:00:35 -69.86,-123.70 133.11 06/08/2024 07:59:22 -69.88,-123.87 133.07 7.04 73
4 06/10/2024 22:36:09 -70.11, 17.06 133.04 06/10/2024 22:36:53 -70.13, 17.08 133.04 1.96 44
5 06/10/2024 23:26:53 69.98,-175.43 46.82 06/10/2024 23:26:21 69.97,-175.50 46.81 2.97 32
6 06/13/2024 14:02:35 70.66, -35.37 47.39 06/13/2024 14:03:45 70.55, -34.04 47.22 50.74 70
7 06/13/2024 14:53:07 -70.06, 132.90 133.25 06/13/2024 14:53:22 -70.06, 132.87 133.26 1.04 15
8 06/13/2024 15:43:50 69.93, -59.59 46.61 06/13/2024 15:42:48 69.95, -59.64 46.64 2.98 62
9 06/16/2024 06:19:22 70.10, 81.28 46.69 06/16/2024 06:20:19 70.10, 81.20 46.69 3.09 57
10 06/16/2024 07:10:04 -70.02,-111.28 133.40 06/16/2024 07:09:49 -70.00,-111.32 133.42 2.67 15
11 06/16/2024 08:00:35 69.20, 57.23 45.75 06/16/2024 07:59:27 69.28, 55.35 45.90 74.89 68
12 06/18/2024 22:36:20 70.08,-162.92 46.61 06/18/2024 22:36:46 70.05,-162.97 46.58 3.09 26
13 06/18/2024 23:27:02 -69.99, 4.53 133.48 06/18/2024 23:26:15 -70.01, 4.59 133.47 2.90 47
14 06/21/2024 14:02:33 -70.13, 145.45 133.34 06/21/2024 14:03:45 -70.13, 145.40 133.35 2.03 72
15 06/21/2024 14:53:17 70.01, -47.06 46.54 06/21/2024 14:53:12 70.02, -47.12 46.54 2.65 5
16 06/21/2024 15:43:56 -69.77, 120.63 133.73 06/21/2024 15:42:44 -69.80, 120.21 133.66 16.79 72



Historial Predications of SNOs between NOAA-21 and LANDSAT-8
